Cloud_Cover
100 100 100 92 5 5 5 1 0 0 0 0 0 0 0 0 0 0 0 0 0 4 0 0 0 0 0 0 0 0 0 0 0 0 0 12 0 58 100 100 94 76 100 100
100 100 100 73 6 5 5 1 0 0 0 0 0 0 0 0 0 0 0 0 0 0 0 0 0 0 0 0 0 0 0 0 0 0 0 0 0 49 100 100 99 100 100 100
100 100 100 81 28 6 5 5 1 0 0 0 0 0 0 0 0 0 3 5 1 0 0 0 0 0 0 0 0 0 0 0 0 0 0 5 18 36 100 100 100 100 100 100
100 100 100 100 76 12 6 5 5 2 0 0 0 0 0 5 5 5 5 0 5 0 0 0 0 0 0 0 0 0 0 0 0 0 0 0 0 31 85 100 100 100 100 100
100 100 100 97 9 5 5 5 5 1 0 0 0 0 94 93 60 15 5 5 0 0 0 0 0 0 0 0 0 0 0 0 0 0 0 0 0 17 31 100 100 100 100 100
100 100 96 87 55 5 5 5 5 5 0 0 0 0 87 100 100 24 54 64 5 4 0 0 0 0 0 0 0 0 0 0 0 0 0 0 0 7 33 100 100 100 100 100
93 100 100 100 100 42 5 5 15 5 5 0 0 0 94 99 49 100 100 81 54 10 5 5 0 0 0 0 0 0 0 0 0 0 0 0 0 13 2 63 64 87 93 83
100 99 99 100 100 100 100 19 5 4 5 5 0 0 19 100 19 71 87 100 100 89 5 1 0 0 0 0 0 0 0 0 0 1 0 0 0 26 12 39 92 0 0 0
100 100 100 100 100 100 100 98 80 5 5 0 0 1 5 100 100 14 100 86 60 18 4 5 0 0 0 0 0 0 0 0 0 0 0 0 0 6 0 11 100 76 89 3
100 100 100 100 100 100 100 100 100 96 24 5 0 0 4 100 14 100 95 100 100 75 4 0 0 0 0 0 1 0 0 2 2 0 0 3 23 29 2 53 53 100 6 35
100 100 100 100 100 100 100 100 100 100 87 5 0 0 49 100 57 20 99 65 41 100 5 0 0 0 0 0 0 0 4 5 5 5 5 10 6 18 79 100 32 71 15 100
94 76 100 100 93 100 100 100 100 45 53 76 35 0 28 71 2 5 50 98 5 5 5 2 0 0 0 0 0 0 0 0 0 3 0 0 0 0 8 32 38 71 98 100
100 100 78 91 34 30 33 99 100 100 100 53 5 0 100 5 5 17 67 75 16 0 0 0 4 0 0 0 0 0 0 0 0 0 0 0 0 0 0 12 39 100 100 100
100 100 96 31 32 82 11 48 99 100 100 1 5 0 41 62 68 95 100 42 1 0 1 4 19 6 0 0 0 0 0 0 0 0 0 1 3 4 5 11 54 100 100 94
100 89 36 100 100 94 20 100 100 100 2 5 0 2 5 100 100 100 8 17 6 4 1 0 3 5 5 5 5 5 5 5 4 2 4 5 5 5 5 6 50 100 100 97
100 100 87 5 77 91 25 78 52 5 5 19 0 4 95 100 65 5 75 8 0 0 0 0 5 4 5 7 60 38 20 5 67 100 80 47 99 99 60 100 100 100 100 100
100 100 100 100 15 100 100 8 20 8 5 5 5 5 90 81 100 100 88 0 0 1 0 0 1 5 5 5 5 6 21 29 59 92 20 94 100 100 100 100 100 100 100 100
100 100 100 100 90 100 45 75 86 97 71 43 18 29 93 100 100 100 32 13 38 19 5 5 6 39 13 5 13 5 5 17 31 5 33 30 86 100 100 100 100 100 100 100
100 100 100 100 100 99 10 5 18 76 6 20 8 75 100 100 100 6 100 100 76 30 44 78 74 87 71 52 54 48 64 81 92 32 34 73 100 100 100 100 100 100 100 100
100 100 100 100 100 100 8 6 5 73 79 31 90 94 100 100 54 10 100 100 11 94 100 100 100 100 93 33 28 48 60 77 100 80 77 80 100 100 100 100 100 100 100 100
100 100 100 100 100 98 16 84 97 100 11 2 2 5 85 100 93 76 100 100 58 14 5 5 5 5 5 24 92 77 94 100 98 99 100 100 100 100 91 77 62 100 99 100
100 100 100 100 100 100 19 18 31 66 91 100 100 100 95 79 45 37 34 70 72 5 5 6 25 5 5 9 86 100 100 100 100 100 100 100 100 100 100 100 90 100 100 100
4 35 99 100 100 100 100 100 100 100 88 6 47 46 70 100 100 100 100 100 98 90 50 55 53 74 50 36 35 56 100 88 52 96 100 100 95 99 100 89 96 99 100 100
4 91 41 38 28 43 24 37 88 98 100 100 100 98 100 100 100 100 100 100 100 100 100 100 100 100 100 100 100 100 100 91 84 89 99 100 100 100 100 100 100 100 100 100
95 43 5 41 15 69 6 41 99 100 100 68 100 100 100 100 100 100 100 100 100 100 100 100 100 100 100 100 100 100 100 100 100 100 100 100 100 100 100 100 100 100 100 100
21 11 100 39 3 60 3 78 100 100 100 96 95 99 100 100 100 100 100 100 100 100 100 95 100 100 100 100 100 100 100 100 100 100 100 100 100 100 100 100 100 100 100 100